Terug naar catalogus

FENGYUN 1C DEB

ActiefSSO
NORAD 33690·DEBRIS·🇨🇳 China

Gelanceerd May 10, 1999 vanaf Taiyuan Satellite Launch Center

Loading…

Volgende Passages (komende 24 uur)

TLE

VersSource: Space-Track

Epoch: Sep 14, 2026, 17:52 UTC

1 33690U 99025DGB 26257.74465409  .00004505  00000-0  10369-2 0  9992
2 33690  98.6178   8.9535 0028302 284.6550  75.1509 14.55654015972301

Volg FENGYUN 1C DEB in realtime met AllMySat

Download on the App Store